Tracking 19562 objects as of 22-Mar-2019
HD Live streaming from Space Station
objects crossing your sky now

OPS 9317 (IDSCS 7)

Track OPS 9317 (IDSCS 7) now!
OPS 9317 (IDSCS 7) is classified as:


NORAD ID: 2221
Int'l Code: 1966-053H
Perigee: 33,745.0 km
Apogee: 34,334.9 km
Inclination: 3.4 °
Period: 1,347.4 minutes
Semi major axis: 40410 km
RCS: 0.2512 m2 (medium)
Launch date: June 16, 1966
Source: United States (US)
Launch site: AIR FORCE EASTERN TEST RANGE (AFETR)
aabbcc
Your satellite tracking list
Your tracking list is empty




NASA's NSSDC Master Catalog

Two Line Element Set (TLE):
1  2221U 66053H   19079.50701212 -.00000148 +00000-0 +00000-0 0  9995
2  2221 003.4382 060.8662 0072991 105.5299 255.6064 01.06869757022759
Source of the keplerian elements: AFSPC